Location: Boissi�res
(45.2500°N, 2.3667°E)
Time: 10:51:25
(UTC+00:00)

Lacrosse 4 Rocket - Pass Details

Date: 03 March 2021
Orbit: 537 x 620 km, 68.0° (Epoch: 17 April)

Event Time Altitude Azimuth Distance (km) Brightness Sun altitude
Rises 19:09:28 0° 182° (S) 2,810 4.9 -16.4°
Reaches altitude 10° 19:11:52 10° 171° (S) 1,928 3.9 -16.8°
Enters shadow 19:14:28 26° 139° (SE) 1,203 2.6 -17.3°
